Hutchinson, KS

11:46 AM CST on November 18, 2017 (GMT -0600)
Hutchinson Municipal

Weather History for KHUT - January, 2014

Change the Weather History Date:

Wednesday, January 1, 2014

  Actual Average Record
Temperature  
Mean Temperature 23 °F -  
Max Temperature 34 °F 42 °F 64 °F (2005)
Min Temperature 10 °F 18 °F 3 °F (2001)
Degree Days  
Heating Degree Days 42    
Moisture  
Dew Point 13 °F    
Average Humidity 77    
Maximum Humidity 88    
Minimum Humidity 68    
Precipitation  
Precipitation 0.00 in - - ()
Sea Level Pressure  
Sea Level Pressure 30.16 in    
Wind  
Wind Speed 13 mph (NNE)    
Max Wind Speed 23 mph    
Max Gust Speed 32 mph    
Visibility 6 miles    
Events Snow    
Averages and records for this station are not official NWS values.
T = Trace of Precipitation, MM = Missing Value Source: NWS Daily Summary

Daily Weather History Graph

Daily Weather History Graph

Search for Another Location

Airport or City:

Trip Planner

Search our weather history database for the weather conditions in past years. The results will help you decide how hot, cold, wet, or windy it might be!

Date:

Astronomy

Jan. 01, 2014 Rise Set
Actual Time 7:47 AM CST 5:22 PM CST
Civil Twilight 7:18 AM CST 5:52 PM CST
Nautical Twilight 6:45 AM CST 6:24 PM CST
Astronomical Twilight 6:13 AM CST 6:57 PM CST
Moon 7:40 AM CST (1/1) 6:07 PM CST (1/1)
Length of Visible Light 10h 33m
Length of Day
9h 34m
New Moon, 0% of the Moon is Illuminated
Jan 1
New Moon
Jan 7
First Quarter
Jan 15
Full
Jan 23
Last Quarter
Jan 30
New

Hourly Weather History & Observations

Time (CST) Temp. Windchill Dew Point Humidity Pressure Visibility Wind Dir Wind Speed Gust Speed Precip Events Conditions
12:52 AM 34.0 °F 26.6 °F 25.0 °F 70% 29.98 in 10.0 mi South 9.2 mph - N/A   Clear
1:52 AM 32.0 °F 24.8 °F 25.0 °F 75% 29.95 in 10.0 mi South 8.1 mph - N/A   Clear
2:52 AM 30.0 °F 26.5 °F 24.1 °F 79% 29.96 in 10.0 mi ESE 3.5 mph - N/A   Clear
3:52 AM 25.0 °F 20.7 °F 21.0 °F 85% 29.96 in 10.0 mi East 3.5 mph - N/A   Clear
4:52 AM 28.9 °F 22.8 °F 24.1 °F 82% 29.94 in 10.0 mi East 5.8 mph - N/A   Clear
5:52 AM 26.1 °F 20.5 °F 21.9 °F 84% 29.95 in 10.0 mi NE 4.6 mph - N/A   Clear
6:52 AM 27.0 °F 20.5 °F 23.0 °F 85% 29.96 in 10.0 mi East 5.8 mph - N/A   Clear
7:52 AM 24.1 °F 12.5 °F 21.0 °F 88% 29.99 in 7.0 mi NNE 12.7 mph - N/A   Clear
8:36 AM 21.9 °F 7.8 °F 18.0 °F 85% 29.99 in 6.0 mi NE 17.3 mph - N/A   Partly Cloudy
8:52 AM 21.9 °F 8.2 °F 18.0 °F 85% 30.03 in 6.0 mi NNE 16.1 mph 24.2 mph N/A   Partly Cloudy
9:28 AM 21.9 °F 6.5 °F 17.1 °F 82% 30.01 in 6.0 mi NNE 20.7 mph 26.5 mph N/A   Haze
9:52 AM 21.9 °F 8.2 °F 17.1 °F 82% 30.05 in 6.0 mi NNE 16.1 mph 29.9 mph N/A   Haze
10:52 AM 21.0 °F 4.6 °F 15.1 °F 78% 30.06 in 6.0 mi NNE 23.0 mph 32.2 mph N/A   Haze
11:52 AM 21.9 °F 7.8 °F 15.1 °F 75% 30.05 in 7.0 mi NNE 17.3 mph - N/A   Overcast
12:52 PM 21.9 °F 8.2 °F 15.1 °F 75% 30.08 in 7.0 mi North 16.1 mph 25.3 mph N/A   Overcast
1:52 PM 21.0 °F 6.6 °F 12.9 °F 71% 30.11 in 7.0 mi North 17.3 mph 27.6 mph N/A   Overcast
2:52 PM 19.9 °F 3.9 °F 10.9 °F 68% 30.14 in 7.0 mi North 20.7 mph 26.5 mph N/A   Overcast
3:52 PM 18.0 °F 1.3 °F 10.0 °F 71% 30.19 in 7.0 mi North 20.7 mph 31.1 mph 0.00 in   Overcast
4:12 PM 17.1 °F 0.1 °F 9.0 °F 71% 30.16 in 1.8 mi North 20.7 mph 29.9 mph 0.00 in Snow Light Snow
4:24 PM 16.0 °F 0.1 °F 9.0 °F 74% 30.16 in 0.8 mi North 17.3 mph 26.5 mph 0.00 in Snow Light Snow
4:52 PM 15.1 °F -1.1 °F 9.0 °F 77% 30.23 in 0.5 mi North 17.3 mph 28.8 mph 0.00 in Snow Snow
5:09 PM 14.0 °F -3.4 °F 8.1 °F 77% 30.19 in 0.8 mi North 19.6 mph 29.9 mph 0.00 in Snow Light Snow
5:19 PM 14.0 °F -3.4 °F 8.1 °F 77% 30.20 in 0.8 mi North 19.6 mph 28.8 mph 0.00 in Snow Light Snow
5:41 PM 14.0 °F -3.0 °F 8.1 °F 77% 30.22 in 1.2 mi North 18.4 mph 31.1 mph 0.00 in Snow Light Snow
5:46 PM 14.0 °F -4.7 °F 8.6 °F 79% 30.22 in 2.0 mi North 23.0 mph 31.1 mph 0.00 in Snow Light Snow
5:52 PM 14.0 °F -3.4 °F 7.0 °F 74% 30.27 in 2.0 mi North 19.6 mph 29.9 mph 0.00 in Snow Light Snow
6:02 PM 14.0 °F -4.3 °F 8.1 °F 77% 30.23 in 1.5 mi North 21.9 mph 31.1 mph 0.00 in Snow Light Snow
6:39 PM 14.0 °F -3.4 °F 8.1 °F 77% 30.27 in 1.2 mi North 19.6 mph 29.9 mph 0.00 in Snow Light Snow
6:52 PM 14.0 °F -2.5 °F 9.0 °F 80% 30.33 in 1.2 mi North 17.3 mph 28.8 mph 0.00 in Snow Light Snow
7:06 PM 14.0 °F -3.4 °F 9.0 °F 80% 30.29 in 0.8 mi North 19.6 mph - 0.00 in Snow Light Snow
7:11 PM 14.0 °F -3.4 °F 9.0 °F 80% 30.29 in 1.0 mi North 19.6 mph 25.3 mph 0.00 in Snow Light Snow
7:25 PM 15.1 °F -1.6 °F 9.0 °F 77% 30.30 in 2.5 mi North 18.4 mph 29.9 mph 0.00 in Snow Light Snow
7:52 PM 15.1 °F -2.5 °F 9.0 °F 77% 30.36 in 3.0 mi North 20.7 mph 29.9 mph 0.00 in Snow Light Snow
8:16 PM 15.1 °F -2.0 °F 9.0 °F 77% 30.32 in 8.0 mi North 19.6 mph 27.6 mph 0.00 in   Overcast
8:52 PM 16.0 °F -0.4 °F 8.1 °F 71% 30.38 in 10.0 mi North 18.4 mph 25.3 mph 0.00 in   Overcast
9:52 PM 14.0 °F -1.4 °F 7.0 °F 74% 30.40 in 10.0 mi North 15.0 mph - N/A   Clear
10:52 PM 12.9 °F -3.4 °F 6.1 °F 74% 30.42 in 10.0 mi North 16.1 mph 24.2 mph N/A   Clear
11:52 PM 10.9 °F -4.1 °F 3.9 °F 73% 30.43 in 10.0 mi North 12.7 mph - N/A   Clear